Regional Weather Roundup
Issued by NWS

Home | Current Version | Previous Version | Text Only | Print | Product List | Glossary On
Versions: 1 2 3 4 5 6 7 8 9 10 11 12 13 14 15 16 17 18 19 20 21 22 23 24 25 26 27
000
ASUS42 KTBW 281017
RWRFL
FLORIDA REGIONAL WEATHER ROUNDUP
NATIONAL WEATHER SERVICE TAMPA BAY RUSKIN FL
600 AM EDT WED SEP 28 2016

NOTE: "FAIR" INDICATES FEW OR NO CLOUDS BELOW 12,000 FEET WITH NO
SIGNIFICANT WEATHER AND/OR OBSTRUCTIONS TO VISIBILITY.

FLZ001>010-012>015-112-114-115-281100-
PANHANDLE FLORIDA

CITY           SKY/WX    TMP DP  RH WIND       PRES   REMARKS
PENSACOLA      CLOUDY    73  71  93 N5        29.91S
CRESTVIEW      PTCLDY    69  67  93 CALM      29.94R FOG
DUKE FIELD     FAIR      69  68  95 N2        29.92R
VALPARAISO     PTCLDY    72  70  92 NE2       29.91R
TRI COUNTY     FAIR      69  68  96 CALM      29.93S
PANAMA CITY    FAIR      71  69  93 CALM      29.91R
TYNDALL AFB    CLEAR     74  72  93 CALM      29.91S
APALACHICOLA   MOCLDY    74  74 100 CALM      29.92R

STATION/POSITION SKY/WX   TEMP    WIND        PRES    WAVE   SWELL
                          AIR SEA DIR/SP/G            HT/PER HT/PER
                          (F)     (DEG/KT/KT) (MB)    (FT/S) (FT/S)
30.1N   87.6W              82 86  340/  8/ 10 1013.0R   1/ 5
29.2N   88.2W              83 85  280/  4/  6 1013.0R
28.8N   86.0W              83 85              1013.6S   1
PANAMA CITY BEAC           78 85   40/  5/  6 1013.1S
TOWER C                    82     250/  8/  9 1014.0R
28.5N   84.5W              83 85  250/  8/ 10 1013.7R   1/ 4

$$
FLZ011-016>038-118-127-128-134-139-239-281100-
NORTH FLORIDA

CITY           SKY/WX    TMP DP  RH WIND       PRES   REMARKS
MARIANNA       CLOUDY    72  72 100 CALM      29.92R
TALLAHASSEE    PTCLDY    72  70  93 CALM      29.93R
PERRY          CLEAR     69  68  97 CALM      29.95S FOG
CROSS CITY     PTCLDY    72  72 100 CALM      29.95R
LAKE CITY      FAIR      68  68 100 CALM      29.95S FOG
GAINESVILLE    CLEAR     71  69  93 S3        29.96R
WILLISTON      CLEAR     72  70  94 MISG      29.96S FOG
MAYPORT NAS    CLEAR     73  72  96 SW6       29.94R
JACKSONVILLE   MOCLDY    70  70 100 S3        29.94R
JAX NAS        CLEAR     78  71  79 SW6       29.95R
FERNANDINA BEA FAIR      77  73  88 SW7       29.93R
ST AUGUSTINE   CLEAR     73  71  93 SW6       29.96R
PALM COAST     CLEAR    N/A N/A N/A CALM      29.96R

STATION/POSITION SKY/WX   TEMP    WIND        PRES    WAVE   SWELL
                          AIR SEA DIR/SP/G            HT/PER HT/PER
                          (F)     (DEG/KT/KT) (MB)    (FT/S) (FT/S)
SHELL POINT                77     310/  2/  3 1012.1
KEATON BEACH               76      70/  3/  4 1013.5R
CEDAR KEY                  80     270/  5/  6 1014.2S
FERNANDINA                 76 84  180/  2/  3 1013.4R
MAYPORT                    75 84  170/  3/  5 1013.9S
31.4N   80.9W              80 82  210/  8/ 10 1013.0F   2/12   2/12
ST AUGUSTINE               74 83  260/  5/  6 1015.0R

$$
FLZ040-043>046-052-053-057-058-063-144-281100-
INTERIOR CENTRAL FLORIDA

CITY           SKY/WX    TMP DP  RH WIND       PRES   REMARKS
OCALA          PTCLDY    70  66  88 CALM      29.97R
THE VILLAGES     N/A     72  72 100 CALM      29.87S
LEESBURG       CLEAR     73  71  93 SW5       29.97R
SANFORD        CLEAR     73  70  90 SW5       29.96R
ORLANDO EXEC   CLEAR     73  71  93 CALM      29.96R
ORLANDO INTL   CLEAR     71  70  96 SW3       29.97R
KISSIMMEE      CLEAR     71  70  96 CALM      29.97S
WINTER HAVEN   CLEAR     73  71  93 CALM      29.98R
LAKELAND       CLEAR     72  72 100 CALM      29.98R
BARTOW         FAIR      70 N/A N/A CALM      29.97S
OKEECHOBEE     CLEAR     70  70 100 CALM      29.98R

$$
FLZ041-047-054-059-064-141-147-281100-
EAST CENTRAL FLORIDA

CITY           SKY/WX    TMP DP  RH WIND       PRES   REMARKS
DAYTONA BEACH  PTCLDY    71  70  96 SW3       29.96R
DELAND         CLEAR     72  72 100 SW5       29.96R
JFK SPACE CTR  CLEAR     74  71  91 W3        29.95R
CAPE CANAVERAL CLEAR     74  71  90 W7        29.95R
PATRICK AFB    CLEAR     74  72  94 SW8       29.96R
MELBOURNE      CLEAR     72  72 100 SW5       29.96R
VERO BEACH     FOG       72  72 100 S5        29.97R VSB 3/4
FT PIERCE      CLEAR     71  70  96 SW3       29.96R
STUART         CLEAR     73  72  94 SW3       29.98R

STATION/POSITION SKY/WX   TEMP    WIND        PRES    WAVE   SWELL
                          AIR SEA DIR/SP/G            HT/PER HT/PER
                          (F)     (DEG/KT/KT) (MB)    (FT/S) (FT/S)
28.5N   80.2W              78 84  230/ 10/ 14 1014.3R
TRIDENT PIER               75 85  210/  8/ 10 1014.4R
28.4N   80.5W                 85                N/A     2/12
27.5N   80.2W                 85                N/A     2/ 8   2/13

$$
FLZ050-056-061-142-242-148-248-149-249-151-251-155-255-
160-260-281100-
WEST CENTRAL FLORIDA

CITY           SKY/WX    TMP DP  RH WIND       PRES   REMARKS
CRYSTAL RIVER  FAIR      72  72 100 CALM      29.96R
INVERNESS      FAIR      70  70 100 CALM      29.97R FOG
BROOKSVILLE    CLEAR     71  71 100 S3        29.97R
CLEARWATER AIR FAIR      73  73 100 CALM      29.96R
ST PETE CLEARW CLEAR     76  75  97 S3        29.96R
TAMPA INTL     PTCLDY    78  75  90 E3        29.96R
TAMPA EXEC     CLEAR     72  68  88 CALM      29.97S FOG
PLANT CITY     CLEAR     72  72 100 CALM      29.98S
MACDILL AFB    CLEAR     77  77 100 SE3       29.96R
PETER O KNIGHT CLEAR     79  77  94 S3        29.96S
ST PETERSBURG  CLEAR     79  76  90 S7        29.94R
SARASOTA       CLEAR     75  71  87 CALM      29.95R
VENICE         FAIR      77  75  94 CALM      29.96S

STATION/POSITION SKY/WX   TEMP    WIND        PRES    WAVE   SWELL
                          AIR SEA DIR/SP/G            HT/PER HT/PER
                          (F)     (DEG/KT/KT) (MB)    (FT/S) (FT/S)
27.3N   84.2W                 86                N/A     1
CLEARWATER BEACH           81 87  190/  2/  3 1014.2R
MIDDLE TAMPA BAY                  160/  8/ 10 1014.5R
VENICE                     78 87  120/  4/  4 1014.0R

$$
FLZ066-069-070-075>078-162-262-165-265-281100-
SOUTHWEST FLORIDA AND KEYS

CITY           SKY/WX    TMP DP  RH WIND       PRES   REMARKS
PUNTA GORDA    CLEAR     74  73  97 CALM      29.98R
FT MYERS       CLEAR     74  73  97 CALM      29.96R
SOUTHWEST INTL CLEAR     74  72  93 CALM      29.96S
NAPLES         CLEAR     75  73  93 CALM      29.96S
MARATHON       CLEAR     75  74  96 CALM      29.98R
KEY WEST NAS   CLEAR     78  73  84 CALM      29.98R
KEY WEST INTL  CLEAR     78  76  93 CALM      29.98R

STATION/POSITION SKY/WX   TEMP    WIND        PRES    WAVE   SWELL
                          AIR SEA DIR/SP/G            HT/PER HT/PER
                          (F)     (DEG/KT/KT) (MB)    (FT/S) (FT/S)
NAPLES                        86              1014.5R
26.0N   85.6W              83 85  240/  8/ 10 1014.7R   1/ 3
DRY TORTUGAS               83      CALM  /  1 1015.0S
SAND KEY                   82     260/  5/  7 1015.5R
LONG KEY                   82 82  250/  4/  4 1015.4R

$$
FLZ067-068-071>074-168-172>174-281100-
SOUTHEAST FLORIDA

CITY           SKY/WX    TMP DP  RH WIND       PRES   REMARKS
W PALM BEACH   PTCLDY    73  70  90 CALM      29.98R
FT LAUDER-EXEC CLEAR     72  70  93 CALM      29.97R
FT LAUDERDALE  PTCLDY    73  71  93 CALM      29.97R
POMPANO BEACH  CLEAR     73  71  93 CALM      29.97R
PEMBROKE PINES CLEAR     73  70  90 CALM      29.99R
OPA LOCKA      CLEAR     71  70  96 CALM      29.98S
MIAMI          PTCLDY    73  73 100 CALM      29.98R
WEST KENDALL   CLEAR     68  68 100 CALM      29.98R
HOMESTEAD      CLEAR     71  71  99 CALM      29.98R

STATION/POSITION SKY/WX   TEMP    WIND        PRES    WAVE   SWELL
                          AIR SEA DIR/SP/G            HT/PER HT/PER
                          (F)     (DEG/KT/KT) (MB)    (FT/S) (FT/S)
PORT EVERGLADES            76     220/  2/  4 1014.7S
VIRGINIA KEY               80 88  260/  7/  9 1015.2S
FOWEY ROCKS                80 84  250/ 10/ 11 1015.4F
SETTLEMENT POINT           81     250/ 11/ 13 1015.7R

$$





USA.gov is the U.S. government's official web portal to all federal, state and local government web resources and services.